Time,TemperatureF,DewpointF,PressureIn,WindDirection,WindDirectionDegrees,WindSpeedMPH,WindSpeedGustMPH,Humidity,HourlyPrecipIn,Conditions,Clouds,dailyrainin,SoftwareType,DateUTC
2013-07-19 00:00:00,79.1,72.0,29.67,SW,221,5.0,8.4,79,0.00,,SCT110,0.00,VWS V14.01,2013-07-19 05:00:00,
2013-07-19 00:10:00,78.8,72.1,29.67,SW,219,4.0,8.4,80,0.00,,SCT110,0.00,VWS V14.01,2013-07-19 05:10:00,
2013-07-19 00:15:00,78.7,72.0,29.67,SW,221,4.0,7.3,80,0.00,,SCT110,0.00,VWS V14.01,2013-07-19 05:15:00,
2013-07-19 00:20:00,78.5,71.8,29.67,SW,217,3.0,6.3,80,0.00,,SCT110,0.00,VWS V14.01,2013-07-19 05:20:00,
2013-07-19 00:25:00,78.5,71.8,29.67,SW,221,6.0,6.3,80,0.00,,SCT110,0.00,VWS V14.01,2013-07-19 05:25:00,
2013-07-19 00:30:00,78.8,72.1,29.67,SW,219,5.0,9.4,80,0.00,,SCT110,0.00,VWS V14.01,2013-07-19 05:30:00,
2013-07-19 00:35:00,79.2,72.1,29.67,SW,222,4.0,10.5,79,0.00,,SCT110,0.00,VWS V14.01,2013-07-19 05:35:00,
2013-07-19 00:45:00,80.2,71.9,29.67,SW,217,5.0,11.5,76,0.00,,BKN120,0.00,VWS V14.01,2013-07-19 05:45:00,
2013-07-19 00:50:00,80.4,72.2,29.68,WNW,286,2.0,10.5,76,0.00,,BKN120,0.00,VWS V14.01,2013-07-19 05:50:00,
2013-07-19 00:55:00,80.2,71.9,29.68,West,279,2.0,9.4,76,0.00,,BKN120,0.00,VWS V14.01,2013-07-19 05:55:00,
2013-07-19 01:00:00,80.1,71.9,29.68,WSW,240,4.0,9.4,76,0.00,,BKN120,0.00,VWS V14.01,2013-07-19 06:00:00,
2013-07-19 01:05:00,79.8,71.9,29.68,WSW,240,6.0,8.4,77,0.00,,SCT075,0.00,VWS V14.01,2013-07-19 06:05:00,
2013-07-19 01:15:00,79.3,71.8,29.68,WSW,242,4.0,8.4,78,0.00,,SCT075,0.00,VWS V14.01,2013-07-19 06:15:00,
2013-07-19 01:20:00,79.1,71.7,29.69,West,265,3.0,8.4,78,0.00,,SCT075,0.00,VWS V14.01,2013-07-19 06:20:00,
2013-07-19 01:25:00,79.1,71.7,29.69,South,188,1.0,7.3,78,0.00,,CLR,0.00,VWS V14.01,2013-07-19 06:25:00,
2013-07-19 01:30:00,79.0,71.6,29.69,WSW,238,5.0,7.3,78,0.00,,CLR,0.00,VWS V14.01,2013-07-19 06:30:00,
2013-07-19 01:40:00,79.1,71.7,29.69,SW,226,2.0,6.3,78,0.00,,CLR,0.00,VWS V14.01,2013-07-19 06:40:00,
2013-07-19 01:50:00,78.8,71.7,29.69,West,269,3.0,8.4,79,0.00,,CLR,0.00,VWS V14.01,2013-07-19 06:50:00,
2013-07-19 01:55:00,79.0,71.9,29.69,West,263,2.0,9.4,79,0.00,,CLR,0.00,VWS V14.01,2013-07-19 06:55:00,
2013-07-19 02:00:00,78.9,71.8,29.70,West,269,3.0,8.4,79,0.00,,CLR,0.00,VWS V14.01,2013-07-19 07:00:00,
2013-07-19 02:05:00,78.7,72.0,29.69,WSW,238,4.0,4.2,80,0.00,,CLR,0.00,VWS V14.01,2013-07-19 07:05:00,
2013-07-19 02:15:00,78.9,72.2,29.69,WNW,286,0.0,4.2,80,0.00,,CLR,0.00,VWS V14.01,2013-07-19 07:15:00,
2013-07-19 02:20:00,78.8,72.1,29.69,WNW,297,1.0,9.4,80,0.00,,SCT055,0.00,VWS V14.01,2013-07-19 07:20:00,
2013-07-19 02:30:00,78.4,72.1,29.69,West,277,0.0,4.2,81,0.00,,SCT055,0.00,VWS V14.01,2013-07-19 07:30:00,
2013-07-19 02:35:00,78.1,71.8,29.69,WSW,258,0.0,3.1,81,0.00,,SCT055,0.00,VWS V14.01,2013-07-19 07:35:00,
2013-07-19 02:40:00,77.6,71.7,29.69,WSW,244,0.0,3.1,82,0.00,,SCT055,0.00,VWS V14.01,2013-07-19 07:40:00,
2013-07-19 02:45:00,77.1,71.5,29.68,West,260,0.0,2.1,83,0.00,,SCT055,0.00,VWS V14.01,2013-07-19 07:45:00,
2013-07-19 02:50:00,76.7,71.5,29.68,WSW,249,0.0,4.2,84,0.00,,SCT055,0.00,VWS V14.01,2013-07-19 07:50:00,
2013-07-19 02:55:00,76.2,71.4,29.68,WSW,252,0.0,1.0,85,0.00,,SCT055,0.00,VWS V14.01,2013-07-19 07:55:00,
2013-07-19 03:00:00,75.9,71.4,29.68,WSW,253,0.0,1.0,86,0.00,,SCT055,0.00,VWS V14.01,2013-07-19 08:00:00,
2013-07-19 03:05:00,75.5,71.4,29.68,West,260,0.0,1.0,87,0.00,,BKN055,0.00,VWS V14.01,2013-07-19 08:05:00,
2013-07-19 03:15:00,75.0,70.9,29.68,SW,233,2.0,2.1,87,0.00,,BKN055,0.00,VWS V14.01,2013-07-19 08:15:00,
2013-07-19 03:25:00,74.0,70.6,29.68,WSW,256,0.0,4.2,89,0.00,,SCT055,0.00,VWS V14.01,2013-07-19 08:25:00,
2013-07-19 03:30:00,73.8,70.4,29.67,WSW,240,0.0,4.2,89,0.00,,SCT055,0.00,VWS V14.01,2013-07-19 08:30:00,
2013-07-19 03:35:00,73.5,70.4,29.67,SW,225,1.0,3.1,90,0.00,,SCT055,0.00,VWS V14.01,2013-07-19 08:35:00,
2013-07-19 03:40:00,73.4,70.3,29.67,SW,232,1.0,4.2,90,0.00,,SCT055,0.00,VWS V14.01,2013-07-19 08:40:00,
2013-07-19 03:45:00,73.2,70.4,29.67,WSW,241,2.0,7.3,91,0.00,,CLR,0.00,VWS V14.01,2013-07-19 08:45:00,
2013-07-19 03:50:00,73.1,70.3,29.67,WSW,243,1.0,4.2,91,0.00,,CLR,0.00,VWS V14.01,2013-07-19 08:50:00,
2013-07-19 03:55:00,73.1,70.3,29.67,WSW,240,0.0,3.1,91,0.00,,CLR,0.00,VWS V14.01,2013-07-19 08:55:00,
2013-07-19 04:00:00,73.1,70.3,29.68,West,277,0.0,4.2,91,0.00,,CLR,0.00,VWS V14.01,2013-07-19 09:00:00,
2013-07-19 04:05:00,73.2,70.4,29.68,SW,223,3.0,4.2,91,0.00,,CLR,0.00,VWS V14.01,2013-07-19 09:05:00,
2013-07-19 04:10:00,73.3,70.5,29.68,WSW,241,4.0,6.3,91,0.00,,CLR,0.00,VWS V14.01,2013-07-19 09:10:00,
2013-07-19 04:20:00,73.6,70.8,29.68,WSW,246,3.0,9.4,91,0.00,,CLR,0.00,VWS V14.01,2013-07-19 09:20:00,
2013-07-19 04:25:00,73.6,70.5,29.67,West,279,2.0,8.4,90,0.00,,SCT065,0.00,VWS V14.01,2013-07-19 09:25:00,
2013-07-19 04:30:00,73.5,70.4,29.67,WNW,284,0.0,6.3,90,0.00,,SCT065,0.00,VWS V14.01,2013-07-19 09:30:00,
2013-07-19 04:40:00,73.0,69.9,29.67,West,268,1.0,3.1,90,0.00,,SCT065,0.00,VWS V14.01,2013-07-19 09:40:00,
2013-07-19 04:45:00,72.7,69.6,29.68,WSW,253,1.0,2.1,90,0.00,,BKN055,0.00,VWS V14.01,2013-07-19 09:45:00,
2013-07-19 04:50:00,72.6,69.5,29.68,WNW,299,2.0,5.2,90,0.00,,BKN055,0.00,VWS V14.01,2013-07-19 09:50:00,
2013-07-19 05:00:00,72.5,69.4,29.68,West,277,0.0,4.2,90,0.00,,BKN055,0.00,VWS V14.01,2013-07-19 10:00:00,
2013-07-19 05:05:00,72.6,69.5,29.69,West,271,4.0,5.2,90,0.00,,SCT065,0.00,VWS V14.01,2013-07-19 10:05:00,
2013-07-19 05:10:00,72.6,69.2,29.69,West,275,1.0,4.2,89,0.00,,SCT065,0.00,VWS V14.01,2013-07-19 10:10:00,
2013-07-19 05:15:00,72.6,69.2,29.69,WSW,251,3.0,4.2,89,0.00,,SCT065,0.00,VWS V14.01,2013-07-19 10:15:00,
2013-07-19 05:25:00,72.9,68.8,29.70,West,259,0.0,2.1,87,0.00,,SCT075,0.00,VWS V14.01,2013-07-19 10:25:00,
2013-07-19 05:30:00,73.1,68.7,29.70,SSW,201,0.0,1.0,86,0.00,,SCT075,0.00,VWS V14.01,2013-07-19 10:30:00,
2013-07-19 05:40:00,73.1,68.3,29.71,West,263,0.0,4.2,85,0.00,,SCT075,0.00,VWS V14.01,2013-07-19 10:40:00,
2013-07-19 05:50:00,72.8,67.7,29.72,West,264,0.0,1.0,84,0.00,,SCT075,0.00,VWS V14.01,2013-07-19 10:50:00,
2013-07-19 05:55:00,72.6,67.5,29.72,West,264,0.0,2.1,84,0.00,,SCT075,0.00,VWS V14.01,2013-07-19 10:55:00,
2013-07-19 06:00:00,72.4,67.3,29.72,West,265,0.0,1.0,84,0.00,,SCT075,0.00,VWS V14.01,2013-07-19 11:00:00,
2013-07-19 06:10:00,72.2,66.8,29.72,NW,311,0.0,4.2,83,0.00,,CLR,0.00,VWS V14.01,2013-07-19 11:10:00,
2013-07-19 06:15:00,72.2,66.8,29.72,WSW,257,2.0,4.2,83,0.00,,CLR,0.00,VWS V14.01,2013-07-19 11:15:00,
2013-07-19 06:20:00,72.0,66.6,29.73,West,261,1.0,2.1,83,0.00,,CLR,0.00,VWS V14.01,2013-07-19 11:20:00,
2013-07-19 06:25:00,71.9,66.5,29.73,West,267,0.0,3.1,83,0.00,,CLR,0.00,VWS V14.01,2013-07-19 11:25:00,
2013-07-19 06:30:00,71.7,66.3,29.73,NW,322,3.0,5.2,83,0.00,,CLR,0.00,VWS V14.01,2013-07-19 11:30:00,
2013-07-19 06:35:00,71.7,66.3,29.73,NW,326,3.0,4.2,83,0.00,,CLR,0.00,VWS V14.01,2013-07-19 11:35:00,
2013-07-19 06:45:00,71.8,66.0,29.73,WSW,239,0.0,1.0,82,0.00,,CLR,0.00,VWS V14.01,2013-07-19 11:45:00,
2013-07-19 06:50:00,71.8,66.0,29.73,WSW,240,0.0,2.1,82,0.00,,CLR,0.00,VWS V14.01,2013-07-19 11:50:00,
2013-07-19 06:55:00,71.9,66.1,29.74,WSW,244,0.0,2.1,82,0.00,,CLR,0.00,VWS V14.01,2013-07-19 11:55:00,
2013-07-19 08:40:00,74.1,66.1,29.78,NNW,334,4.0,8.4,76,0.00,,CLR,0.00,VWS V14.01,2013-07-19 13:40:00,
2013-07-19 08:45:00,74.0,64.8,29.78,NNW,348,1.0,10.5,73,0.00,,CLR,0.00,VWS V14.01,2013-07-19 13:45:00,
2013-07-19 08:50:00,74.1,65.3,29.78,WNW,302,4.0,5.2,74,0.00,,CLR,0.00,VWS V14.01,2013-07-19 13:50:00,
2013-07-19 08:55:00,74.1,65.3,29.78,NNW,329,1.0,8.4,74,0.00,,CLR,0.00,VWS V14.01,2013-07-19 13:55:00,
2013-07-19 09:00:00,74.6,66.2,29.78,NNW,327,0.0,3.1,75,0.00,,CLR,0.00,VWS V14.01,2013-07-19 14:00:00,
2013-07-19 09:05:00,74.6,65.0,29.79,West,274,0.0,7.3,72,0.00,,CLR,0.00,VWS V14.01,2013-07-19 14:05:00,
2013-07-19 09:10:00,74.5,64.9,29.79,WNW,300,0.0,4.2,72,0.00,,CLR,0.00,VWS V14.01,2013-07-19 14:10:00,
2013-07-19 09:15:00,74.3,64.7,29.79,WSW,238,4.0,9.4,72,0.00,,CLR,0.00,VWS V14.01,2013-07-19 14:15:00,
2013-07-19 09:20:00,74.3,65.1,29.79,NW,325,0.0,5.2,73,0.00,,CLR,0.00,VWS V14.01,2013-07-19 14:20:00,
2013-07-19 09:25:00,74.5,65.3,29.79,WNW,300,1.0,4.2,73,0.00,,CLR,0.00,VWS V14.01,2013-07-19 14:25:00,
2013-07-19 09:30:00,74.8,65.6,29.79,WNW,284,1.0,6.3,73,0.00,,CLR,0.00,VWS V14.01,2013-07-19 14:30:00,
2013-07-19 09:35:00,74.7,65.1,29.79,WNW,298,0.0,8.4,72,0.00,,CLR,0.00,VWS V14.01,2013-07-19 14:35:00,
2013-07-19 09:45:00,74.9,65.3,29.80,WNW,295,1.0,7.3,72,0.00,,CLR,0.00,VWS V14.01,2013-07-19 14:45:00,
2013-07-19 09:50:00,74.9,64.9,29.80,NW,319,2.0,7.3,71,0.00,,CLR,0.00,VWS V14.01,2013-07-19 14:50:00,
2013-07-19 09:55:00,75.1,65.5,29.80,ENE,76,0.0,6.3,72,0.00,,CLR,0.00,VWS V14.01,2013-07-19 14:55:00,
2013-07-19 10:10:00,75.1,65.5,29.80,NW,315,0.0,5.2,72,0.00,,CLR,0.00,VWS V14.01,2013-07-19 15:10:00,
2013-07-19 10:15:00,75.1,65.1,29.80,NW,304,1.0,9.4,71,0.00,,CLR,0.00,VWS V14.01,2013-07-19 15:15:00,
2013-07-19 10:30:00,75.6,65.5,29.81,NNW,327,1.0,7.3,71,0.00,,SCT024,0.00,VWS V14.01,2013-07-19 15:30:00,
2013-07-19 10:35:00,75.8,64.9,29.81,West,280,0.0,5.2,69,0.00,,SCT024,0.00,VWS V14.01,2013-07-19 15:35:00,
2013-07-19 10:40:00,75.7,64.8,29.82,NNW,328,1.0,8.4,69,0.00,,SCT024,0.00,VWS V14.01,2013-07-19 15:40:00,
2013-07-19 10:45:00,75.7,65.2,29.82,SSW,201,0.0,7.3,70,0.00,,SCT024,0.00,VWS V14.01,2013-07-19 15:45:00,
2013-07-19 10:50:00,76.2,65.3,29.82,NNW,331,1.0,3.1,69,0.00,,SCT024,0.00,VWS V14.01,2013-07-19 15:50:00,
2013-07-19 10:55:00,76.5,65.2,29.82,WNW,294,2.0,6.3,68,0.00,,SCT024,0.00,VWS V14.01,2013-07-19 15:55:00,
2013-07-19 11:00:00,76.6,64.8,29.82,WSW,238,0.0,3.1,67,0.00,,SCT024,0.00,VWS V14.01,2013-07-19 16:00:00,
2013-07-19 11:10:00,77.2,65.4,29.82,NNW,331,2.0,6.3,67,0.00,,SCT026,0.00,VWS V14.01,2013-07-19 16:10:00,
2013-07-19 11:20:00,77.0,64.8,29.83,West,269,1.0,8.4,66,0.00,,SCT026,0.00,VWS V14.01,2013-07-19 16:20:00,
2013-07-19 11:25:00,77.3,65.5,29.83,WNW,301,0.0,6.3,67,0.00,,SCT026,0.00,VWS V14.01,2013-07-19 16:25:00,
2013-07-19 11:30:00,77.4,65.6,29.83,ENE,57,2.0,7.3,67,0.00,,SCT026,0.00,VWS V14.01,2013-07-19 16:30:00,
2013-07-19 11:40:00,77.5,65.3,29.83,WNW,292,0.0,9.4,66,0.00,,SCT026,0.00,VWS V14.01,2013-07-19 16:40:00,
2013-07-19 12:00:00,78.4,65.7,29.83,NNW,331,1.0,3.1,65,0.00,,CLR,0.00,VWS V14.01,2013-07-19 17:00:00,
2013-07-19 12:05:00,78.5,64.9,29.83,NNW,340,3.0,7.3,63,0.00,,CLR,0.00,VWS V14.01,2013-07-19 17:05:00,
2013-07-19 12:10:00,78.3,66.4,29.83,West,264,2.0,10.5,67,0.00,,CLR,0.00,VWS V14.01,2013-07-19 17:10:00,
2013-07-19 12:15:00,78.3,65.1,29.83,WNW,298,1.0,3.1,64,0.00,,CLR,0.00,VWS V14.01,2013-07-19 17:15:00,
2013-07-19 12:20:00,78.7,65.5,29.83,West,270,4.0,6.3,64,0.00,,CLR,0.00,VWS V14.01,2013-07-19 17:20:00,
2013-07-19 12:25:00,78.4,66.1,29.83,NW,325,4.0,6.3,66,0.00,,CLR,0.00,VWS V14.01,2013-07-19 17:25:00,
2013-07-19 12:35:00,79.0,64.9,29.83,WSW,238,1.0,5.2,62,0.00,,CLR,0.00,VWS V14.01,2013-07-19 17:35:00,
2013-07-19 12:40:00,78.8,66.1,29.83,WNW,284,2.0,8.4,65,0.00,,CLR,0.00,VWS V14.01,2013-07-19 17:40:00,
2013-07-19 12:45:00,79.1,65.9,29.83,West,272,1.0,6.3,64,0.00,,CLR,0.00,VWS V14.01,2013-07-19 17:45:00,
2013-07-19 12:55:00,79.5,64.9,29.83,NW,310,0.0,4.2,61,0.00,,CLR,0.00,VWS V14.01,2013-07-19 17:55:00,
2013-07-19 13:05:00,79.7,65.5,29.83,North,5,0.0,7.3,62,0.00,,CLR,0.00,VWS V14.01,2013-07-19 18:05:00,
2013-07-19 13:10:00,80.0,65.4,29.83,SW,229,4.0,7.3,61,0.00,,CLR,0.00,VWS V14.01,2013-07-19 18:10:00,
2013-07-19 13:15:00,80.1,64.5,29.83,NW,325,0.0,7.3,59,0.00,,CLR,0.00,VWS V14.01,2013-07-19 18:15:00,
2013-07-19 13:20:00,80.5,66.3,29.83,West,274,0.0,8.4,62,0.00,,CLR,0.00,VWS V14.01,2013-07-19 18:20:00,
2013-07-19 13:25:00,80.5,65.8,29.83,ENE,62,3.0,6.3,61,0.00,,CLR,0.00,VWS V14.01,2013-07-19 18:25:00,
2013-07-19 13:35:00,80.6,65.0,29.83,East,96,0.0,4.2,59,0.00,,CLR,0.00,VWS V14.01,2013-07-19 18:35:00,
2013-07-19 13:45:00,81.4,65.2,29.83,WNW,289,0.0,3.1,58,0.00,,CLR,0.00,VWS V14.01,2013-07-19 18:45:00,
2013-07-19 13:55:00,82.0,64.8,29.82,East,92,2.0,7.3,56,0.00,,CLR,0.00,VWS V14.01,2013-07-19 18:55:00,
2013-07-19 14:00:00,82.0,64.8,29.82,WSW,243,0.0,7.3,56,0.00,,CLR,0.00,VWS V14.01,2013-07-19 19:00:00,
2013-07-19 14:10:00,81.8,64.1,29.82,WNW,296,4.0,8.4,55,0.00,,CLR,0.00,VWS V14.01,2013-07-19 19:10:00,
2013-07-19 14:15:00,81.8,64.1,29.83,North,11,0.0,7.3,55,0.00,,CLR,0.00,VWS V14.01,2013-07-19 19:15:00,
2013-07-19 14:20:00,82.1,66.4,29.83,NW,307,0.0,8.4,59,0.00,,CLR,0.00,VWS V14.01,2013-07-19 19:20:00,
2013-07-19 14:30:00,82.1,63.8,29.83,West,264,0.0,8.4,54,0.00,,CLR,0.00,VWS V14.01,2013-07-19 19:30:00,
2013-07-19 14:35:00,82.4,65.1,29.83,North,355,2.0,10.5,56,0.00,,CLR,0.00,VWS V14.01,2013-07-19 19:35:00,
2013-07-19 14:40:00,82.5,64.7,29.82,ENE,65,2.0,8.4,55,0.00,,CLR,0.00,VWS V14.01,2013-07-19 19:40:00,
2013-07-19 14:50:00,82.4,64.1,29.82,West,260,0.0,15.7,54,0.00,,CLR,0.00,VWS V14.01,2013-07-19 19:50:00,
2013-07-19 14:55:00,82.7,64.4,29.82,WNW,302,1.0,6.3,54,0.00,,CLR,0.00,VWS V14.01,2013-07-19 19:55:00,
2013-07-19 15:10:00,83.5,63.5,29.82,West,274,7.0,8.4,51,0.00,,CLR,0.00,VWS V14.01,2013-07-19 20:10:00,
2013-07-19 15:15:00,83.1,64.8,29.82,West,259,2.0,7.3,54,0.00,,CLR,0.00,VWS V14.01,2013-07-19 20:15:00,
2013-07-19 15:20:00,83.3,63.9,29.82,ENE,76,0.0,3.1,52,0.00,,CLR,0.00,VWS V14.01,2013-07-19 20:20:00,
2013-07-19 15:25:00,83.5,64.0,29.82,NNE,15,1.0,10.5,52,0.00,,CLR,0.00,VWS V14.01,2013-07-19 20:25:00,
2013-07-19 15:35:00,83.6,64.1,29.82,West,271,0.0,5.2,52,0.00,,CLR,0.00,VWS V14.01,2013-07-19 20:35:00,
2013-07-19 15:40:00,84.0,65.1,29.82,WNW,293,1.0,3.1,53,0.00,,CLR,0.00,VWS V14.01,2013-07-19 20:40:00,
2013-07-19 15:45:00,84.3,63.7,29.82,WNW,303,7.0,13.6,50,0.00,,CLR,0.00,VWS V14.01,2013-07-19 20:45:00,
2013-07-19 15:50:00,84.1,63.5,29.82,WNW,294,0.0,7.3,50,0.00,,CLR,0.00,VWS V14.01,2013-07-19 20:50:00,
2013-07-19 16:00:00,83.7,63.7,29.82,WSW,244,2.0,8.4,51,0.00,,CLR,0.00,VWS V14.01,2013-07-19 21:00:00,
2013-07-19 16:05:00,83.7,64.8,29.82,WSW,238,2.0,8.4,53,0.00,,CLR,0.00,VWS V14.01,2013-07-19 21:05:00,
2013-07-19 16:10:00,83.9,63.8,29.82,WNW,294,1.0,9.4,51,0.00,,CLR,0.00,VWS V14.01,2013-07-19 21:10:00,
2013-07-19 16:15:00,84.2,64.7,29.82,West,277,6.0,9.4,52,0.00,,CLR,0.00,VWS V14.01,2013-07-19 21:15:00,
2013-07-19 16:25:00,84.5,65.0,29.82,WNW,292,0.0,4.2,52,0.00,,CLR,0.00,VWS V14.01,2013-07-19 21:25:00,
2013-07-19 16:30:00,83.9,62.7,29.82,West,274,0.0,7.3,49,0.00,,CLR,0.00,VWS V14.01,2013-07-19 21:30:00,
2013-07-19 16:35:00,83.6,65.7,29.81,NW,326,0.0,3.1,55,0.00,,CLR,0.00,VWS V14.01,2013-07-19 21:35:00,
2013-07-19 16:40:00,83.6,64.7,29.81,West,271,4.0,6.3,53,0.00,,CLR,0.00,VWS V14.01,2013-07-19 21:40:00,
2013-07-19 16:45:00,83.3,64.4,29.81,WSW,240,3.0,9.4,53,0.00,,CLR,0.00,VWS V14.01,2013-07-19 21:45:00,
2013-07-19 16:50:00,83.8,65.9,29.81,NW,318,1.0,8.4,55,0.00,,CLR,0.00,VWS V14.01,2013-07-19 21:50:00,
2013-07-19 16:55:00,83.6,64.7,29.81,North,5,0.0,5.2,53,0.00,,CLR,0.00,VWS V14.01,2013-07-19 21:55:00,
2013-07-19 17:00:00,83.8,64.9,29.81,WNW,286,4.0,4.2,53,0.00,,CLR,0.00,VWS V14.01,2013-07-19 22:00:00,
2013-07-19 17:10:00,83.7,64.8,29.81,WNW,284,0.0,7.3,53,0.00,,SCT049,0.00,VWS V14.01,2013-07-19 22:10:00,
2013-07-19 17:20:00,83.7,65.8,29.80,ENE,71,0.0,3.1,55,0.00,,SCT060,0.00,VWS V14.01,2013-07-19 22:20:00,
2013-07-19 17:25:00,83.8,65.4,29.80,WNW,301,0.0,6.3,54,0.00,,SCT060,0.00,VWS V14.01,2013-07-19 22:25:00,
2013-07-19 17:35:00,83.8,67.0,29.80,NNW,344,2.0,2.1,57,0.00,,SCT060,0.00,VWS V14.01,2013-07-19 22:35:00,
2013-07-19 17:40:00,83.9,66.0,29.80,NW,313,0.0,4.2,55,0.00,,SCT050,0.00,VWS V14.01,2013-07-19 22:40:00,
2013-07-19 17:45:00,84.4,66.5,29.80,WSW,256,1.0,3.1,55,0.00,,SCT050,0.00,VWS V14.01,2013-07-19 22:45:00,
2013-07-19 17:55:00,84.9,65.9,29.80,NNE,24,0.0,3.1,53,0.00,,SCT050,0.00,VWS V14.01,2013-07-19 22:55:00,
2013-07-19 18:00:00,84.9,65.3,29.80,North,349,1.0,6.3,52,0.00,,SCT050,0.00,VWS V14.01,2013-07-19 23:00:00,
2013-07-19 18:05:00,84.9,65.3,29.80,SW,229,0.0,3.1,52,0.00,,SCT050,0.00,VWS V14.01,2013-07-19 23:05:00,
2013-07-19 18:10:00,85.0,65.4,29.80,West,261,6.0,6.3,52,0.00,,SCT050,0.00,VWS V14.01,2013-07-19 23:10:00,
2013-07-19 18:20:00,84.3,64.8,29.79,NW,321,0.0,6.3,52,0.00,,SCT050,0.00,VWS V14.01,2013-07-19 23:20:00,
2013-07-19 18:25:00,84.4,65.4,29.79,SW,225,0.0,2.1,53,0.00,,CLR,0.00,VWS V14.01,2013-07-19 23:25:00,
2013-07-19 18:30:00,84.5,65.5,29.79,West,262,0.0,4.2,53,0.00,,CLR,0.00,VWS V14.01,2013-07-19 23:30:00,
2013-07-19 18:35:00,84.0,63.4,29.79,WNW,292,0.0,6.3,50,0.00,,CLR,0.00,VWS V14.01,2013-07-19 23:35:00,
2013-07-19 18:40:00,83.6,64.7,29.79,West,275,0.0,3.1,53,0.00,,CLR,0.00,VWS V14.01,2013-07-19 23:40:00,
2013-07-19 18:50:00,83.5,65.1,29.79,NW,307,0.0,2.1,54,0.00,,CLR,0.00,VWS V14.01,2013-07-19 23:50:00,
2013-07-19 19:00:00,83.9,64.9,29.79,WNW,298,0.0,2.1,53,0.00,,CLR,0.00,VWS V14.01,2013-07-20 00:00:00,
2013-07-19 19:05:00,83.6,65.2,29.79,NW,314,0.0,3.1,54,0.00,,CLR,0.00,VWS V14.01,2013-07-20 00:05:00,
2013-07-19 19:10:00,83.5,65.1,29.79,NW,314,0.0,2.1,54,0.00,,CLR,0.00,VWS V14.01,2013-07-20 00:10:00,
2013-07-19 19:15:00,83.1,64.2,29.79,WNW,289,0.0,2.1,53,0.00,,CLR,0.00,VWS V14.01,2013-07-20 00:15:00,
2013-07-19 19:20:00,83.0,64.7,29.79,West,260,0.0,2.1,54,0.00,,CLR,0.00,VWS V14.01,2013-07-20 00:20:00,
2013-07-19 19:25:00,83.3,67.0,29.78,West,260,0.0,0.0,58,0.00,,CLR,0.00,VWS V14.01,2013-07-20 00:25:00,
2013-07-19 19:30:00,83.7,66.9,29.78,West,261,0.0,0.0,57,0.00,,CLR,0.00,VWS V14.01,2013-07-20 00:30:00,
2013-07-19 19:35:00,84.1,66.7,29.78,West,261,0.0,0.0,56,0.00,,CLR,0.00,VWS V14.01,2013-07-20 00:35:00,
2013-07-19 19:40:00,84.5,67.1,29.78,West,261,0.0,0.0,56,0.00,,CLR,0.00,VWS V14.01,2013-07-20 00:40:00,
2013-07-19 19:45:00,83.9,67.1,29.78,West,261,0.0,1.0,57,0.00,,CLR,0.00,VWS V14.01,2013-07-20 00:45:00,
2013-07-19 19:55:00,83.2,67.9,29.78,West,261,0.0,0.0,60,0.00,,CLR,0.00,VWS V14.01,2013-07-20 00:55:00,
2013-07-19 20:00:00,83.2,68.4,29.78,West,261,0.0,0.0,61,0.00,,CLR,0.00,VWS V14.01,2013-07-20 01:00:00,
2013-07-19 20:05:00,82.7,67.9,29.78,West,261,0.0,1.0,61,0.00,,CLR,0.00,VWS V14.01,2013-07-20 01:05:00,
2013-07-19 20:10:00,82.1,68.7,29.78,West,261,0.0,0.0,64,0.00,,CLR,0.00,VWS V14.01,2013-07-20 01:10:00,
2013-07-19 20:20:00,80.0,68.1,29.78,West,261,0.0,0.0,67,0.00,,CLR,0.00,VWS V14.01,2013-07-20 01:20:00,
2013-07-19 20:30:00,77.0,67.3,29.78,West,261,0.0,0.0,72,0.00,,CLR,0.00,VWS V14.01,2013-07-20 01:30:00,
2013-07-19 20:35:00,76.4,67.9,29.79,West,261,0.0,0.0,75,0.00,,CLR,0.00,VWS V14.01,2013-07-20 01:35:00,
2013-07-19 20:45:00,75.3,67.6,29.79,West,261,0.0,0.0,77,0.00,,CLR,0.00,VWS V14.01,2013-07-20 01:45:00,
2013-07-19 20:55:00,73.6,67.4,29.79,West,261,0.0,0.0,81,0.00,,CLR,0.00,VWS V14.01,2013-07-20 01:55:00,
2013-07-19 21:00:00,73.1,67.3,29.79,West,261,0.0,0.0,82,0.00,,CLR,0.00,VWS V14.01,2013-07-20 02:00:00,
2013-07-19 21:05:00,72.6,67.2,29.79,West,261,0.0,0.0,83,0.00,,CLR,0.00,VWS V14.01,2013-07-20 02:05:00,
2013-07-19 21:10:00,71.8,66.4,29.79,West,261,0.0,0.0,83,0.00,,CLR,0.00,VWS V14.01,2013-07-20 02:10:00,
2013-07-19 21:20:00,70.6,66.2,29.79,West,261,0.0,0.0,86,0.00,,CLR,0.00,VWS V14.01,2013-07-20 02:20:00,
2013-07-19 21:25:00,70.3,66.2,29.79,West,261,0.0,0.0,87,0.00,,CLR,0.00,VWS V14.01,2013-07-20 02:25:00,
2013-07-19 21:30:00,69.9,65.9,29.80,West,261,0.0,0.0,87,0.00,,CLR,0.00,VWS V14.01,2013-07-20 02:30:00,
2013-07-19 21:40:00,69.7,65.3,29.80,West,261,0.0,1.0,86,0.00,,CLR,0.00,VWS V14.01,2013-07-20 02:40:00,
2013-07-19 21:45:00,69.6,65.2,29.80,SW,235,1.0,3.1,86,0.00,,CLR,0.00,VWS V14.01,2013-07-20 02:45:00,
2013-07-19 21:55:00,70.1,65.1,29.80,SW,235,2.0,2.1,84,0.00,,CLR,0.00,VWS V14.01,2013-07-20 02:55:00,
2013-07-19 22:00:00,70.0,64.9,29.81,SW,235,0.0,2.1,84,0.00,,CLR,0.00,VWS V14.01,2013-07-20 03:00:00,
2013-07-19 22:05:00,70.1,64.7,29.81,SW,235,0.0,2.1,83,0.00,,CLR,0.00,VWS V14.01,2013-07-20 03:05:00,
2013-07-19 22:15:00,69.5,64.5,29.81,SW,235,0.0,0.0,84,0.00,,CLR,0.00,VWS V14.01,2013-07-20 03:15:00,
2013-07-19 22:20:00,69.0,64.3,29.81,SW,235,1.0,2.1,85,0.00,,CLR,0.00,VWS V14.01,2013-07-20 03:20:00,
2013-07-19 22:25:00,68.7,64.3,29.81,SW,235,0.0,2.1,86,0.00,,CLR,0.00,VWS V14.01,2013-07-20 03:25:00,
2013-07-19 22:30:00,68.5,64.2,29.81,SW,235,1.0,2.1,86,0.00,,CLR,0.00,VWS V14.01,2013-07-20 03:30:00,
2013-07-19 22:40:00,68.0,64.0,29.81,SW,235,0.0,1.0,87,0.00,,CLR,0.00,VWS V14.01,2013-07-20 03:40:00,
2013-07-19 22:45:00,67.9,63.9,29.81,SW,235,0.0,2.1,87,0.00,,CLR,0.00,VWS V14.01,2013-07-20 03:45:00,
2013-07-19 22:50:00,67.9,63.9,29.81,SW,235,2.0,2.1,87,0.00,,CLR,0.00,VWS V14.01,2013-07-20 03:50:00,
2013-07-19 22:55:00,67.9,63.9,29.81,SW,235,0.0,2.1,87,0.00,,CLR,0.00,VWS V14.01,2013-07-20 03:55:00,
2013-07-19 23:00:00,68.0,64.0,29.81,SW,235,1.0,2.1,87,0.00,,CLR,0.00,VWS V14.01,2013-07-20 04:00:00,
2013-07-19 23:05:00,68.1,64.1,29.81,SW,235,0.0,1.0,87,0.00,,CLR,0.00,VWS V14.01,2013-07-20 04:05:00,
2013-07-19 23:10:00,68.4,64.4,29.81,SW,235,0.0,1.0,87,0.00,,CLR,0.00,VWS V14.01,2013-07-20 04:10:00,
2013-07-19 23:15:00,68.7,64.7,29.81,SW,235,0.0,1.0,87,0.00,,CLR,0.00,VWS V14.01,2013-07-20 04:15:00,
2013-07-19 23:20:00,68.8,64.4,29.81,SW,235,0.0,2.1,86,0.00,,CLR,0.00,VWS V14.01,2013-07-20 04:20:00,
2013-07-19 23:25:00,69.0,64.6,29.82,SW,235,0.0,2.1,86,0.00,,CLR,0.00,VWS V14.01,2013-07-20 04:25:00,
2013-07-19 23:30:00,69.2,65.2,29.82,North,355,0.0,8.4,87,0.00,,CLR,0.00,VWS V14.01,2013-07-20 04:30:00,
2013-07-19 23:40:00,69.4,65.0,29.82,NNE,26,0.0,1.0,86,0.00,,CLR,0.00,VWS V14.01,2013-07-20 04:40:00,
2013-07-19 23:45:00,69.4,65.0,29.82,NNE,26,0.0,0.0,86,0.00,,CLR,0.00,VWS V14.01,2013-07-20 04:45:00,
2013-07-19 23:50:00,69.3,64.9,29.83,NNE,26,0.0,0.0,86,0.00,,CLR,0.00,VWS V14.01,2013-07-20 04:50:00,
2013-07-19 23:55:00,69.3,64.9,29.82,NNE,26,0.0,0.0,86,0.00,,CLR,0.00,VWS V14.01,2013-07-20 04:55:00,